Temperature
19 19 19 19 19 19 19 19 19 19 19 19 19 19 19 19 19 19 19 19 19 19 19 19 18 18 18 18 18 18 18 18 17 17 17 17 17 17 17 17 17 17 17
19 19 19 19 19 19 19 19 19 19 19 19 19 19 19 19 19 19 19 19 19 19 19 19 18 18 18 18 18 18 18 18 18 17 17 17 17 17 17 17 17 17 17
19 19 19 19 19 19 19 19 19 19 19 19 19 19 19 19 18 18 18 18 19 19 18 18 18 18 18 18 18 18 18 18 18 17 17 17 17 17 17 17 17 17 17
19 19 19 19 19 19 19 19 19 19 19 19 19 19 19 19 18 18 18 18 18 18 18 18 18 18 18 18 18 18 18 18 18 17 17 17 17 17 17 17 17 17 17
19 19 19 19 19 19 19 19 19 19 19 19 19 19 19 19 19 19 19 18 18 18 18 18 18 18 18 18 18 18 18 18 18 17 17 17 17 17 17 17 17 17 17
19 19 19 19 19 19 19 19 19 19 18 19 19 19 19 19 19 19 19 19 18 18 18 18 18 18 18 18 18 18 18 18 18 17 17 17 17 17 17 17 17 17 17
19 19 19 19 18 18 19 19 18 19 18 18 19 19 19 19 19 19 19 19 18 18 18 18 18 18 18 18 18 18 18 18 17 17 17 17 17 17 17 17 17 17 17
19 19 19 18 18 18 18 18 18 18 18 18 18 18 19 19 19 19 19 19 18 18 18 18 18 18 17 17 17 17 17 17 17 17 17 17 17 17 17 17 17 17 17
19 19 19 18 18 18 18 18 18 18 18 18 19 18 18 18 19 19 19 19 19 18 18 18 18 18 18 17 17 17 17 17 17 17 17 17 17 17 17 17 17 17 17
19 19 18 18 18 18 18 18 18 18 18 18 18 18 18 18 18 18 18 18 18 18 18 18 18 18 18 17 17 17 17 17 17 17 17 17 17 17 17 17 17 17 16
18 18 18 18 18 18 18 18 18 18 18 18 18 18 18 18 18 18 18 18 18 18 18 18 18 18 17 17 17 17 17 17 17 17 17 17 17 17 17 17 16 16 16
18 18 18 18 18 18 18 18 17 17 18 18 18 17 18 18 18 18 18 18 18 18 18 18 18 18 17 17 17 17 17 17 17 17 16 16 16 16 16 16 16 16 16
18 18 18 18 18 18 17 17 17 17 17 17 17 17 17 17 17 17 17 17 18 18 18 18 18 17 17 17 17 17 17 17 17 16 16 16 16 16 16 16 16 16 16
18 18 18 18 18 18 17 17 17 17 17 17 17 17 17 17 17 17 17 17 17 17 17 17 17 17 17 17 17 17 16 16 16 16 16 16 16 16 16 16 16 16 16
18 18 18 17 17 17 17 17 17 17 16 16 16 16 16 16 16 16 17 17 17 16 17 17 17 17 17 17 16 16 16 16 16 16 16 16 16 16 16 16 15 15 15
18 18 18 17 17 17 17 17 16 16 16 16 16 16 16 16 16 16 16 16 16 16 16 16 16 16 16 16 16 16 16 16 16 16 16 16 16 15 15 15 15 15 15
18 18 17 17 17 16 16 16 16 16 16 16 16 15 16 16 16 16 16 16 16 16 16 16 16 16 16 16 16 16 16 15 15 15 15 15 15 15 15 15 15 15 15
17 17 17 17 16 16 16 16 16 16 16 15 15 15 15 15 15 15 15 15 15 16 15 15 15 16 16 15 15 15 15 15 15 15 15 15 15 15 15 15 15 15 14
17 17 16 16 16 16 16 16 16 15 15 15 15 15 15 15 15 15 15 15 15 15 15 15 15 15 15 15 15 15 15 15 15 15 15 15 15 15 15 14 14 14 14
17 17 16 16 16 16 16 16 15 15 15 15 15 15 15 15 15 15 15 15 15 15 15 14 14 14 15 15 14 14 14 14 14 14 14 14 14 14 14 14 14 14 14
17 17 16 16 16 16 16 16 15 15 15 15 15 15 15 14 15 15 14 14 14 14 14 14 14 14 14 14 14 14 14 14 14 14 14 14 14 14 14 14 14 14 14
16 16 16 16 16 15 15 15 15 15 15 14 14 14 14 14 14 14 14 14 14 14 14 13 13 13 14 14 14 13 13 13 13 14 14 14 13 13 14 14 14 14 13
16 16 16 16 16 15 15 15 15 15 14 14 14 14 14 14 14 14 14 14 13 13 13 13 13 13 13 13 13 13 13 13 13 13 13 13 13 13 13 13 13 13 13
16 16 15 15 15 15 15 15 15 14 14 14 14 14 14 14 14 14 13 13 13 13 13 13 13 13 13 13 13 13 13 13 13 13 13 13 13 13 13 13 13 13 13
15 15 15 15 15 15 15 14 14 14 14 13 13 13 13 13 13 13 13 13 13 13 13 13 13 13 13 13 13 13 13 12 12 13 13 13 13 13 13 13 13 13 13
15 15 15 15 14 15 15 14 14 14 13 13 13 13 13 13 13 13 13 13 13 13 13 12 13 13 13 13 13 12 12 12 12 12 12 12 12 12 12 12 12 12 12
Wind_Speed
3 2 3 2 1 1 1 1 1 2 1 1 1 1 2 2 1 2 5 9 11 11 10 10 10 10 10 10 11 12 13 12 11 11 11 11 10 10 10 9 9 9 9
2 2 2 2 2 2 1 1 1 1 1 1 1 0 1 2 3 3 5 6 8 9 9 9 9 10 11 11 12 12 12 12 12 11 11 11 11 11 10 10 10 10 9
3 2 2 1 2 2 1 1 2 1 1 1 1 1 1 1 2 3 5 5 6 7 8 8 9 10 11 12 12 12 12 11 12 12 12 12 11 12 11 11 11 11 11
2 2 2 2 2 2 2 1 1 1 1 0 1 1 1 2 2 2 4 5 5 6 8 8 8 8 9 11 12 12 12 12 11 12 12 12 12 12 12 12 12 12 11
3 2 2 2 1 2 2 3 3 2 1 1 1 2 1 2 2 2 3 4 6 6 7 8 9 8 8 10 11 12 12 12 12 12 12 12 12 11 11 12 12 12 12
2 2 2 2 2 3 3 3 1 1 1 1 2 1 2 3 3 3 3 3 4 6 7 7 8 8 9 9 10 10 11 11 11 10 10 10 11 11 12 12 12 13 12
2 2 2 1 2 2 3 2 2 1 1 0 1 1 1 3 3 3 2 2 2 4 6 8 8 7 7 9 10 10 10 10 9 9 9 9 9 10 11 12 13 13 13
2 2 1 1 1 2 2 2 2 2 2 1 1 1 0 0 1 3 3 3 3 3 4 7 8 8 8 8 9 11 11 11 10 10 10 9 9 10 11 10 11 12 13
3 2 2 1 2 1 1 1 1 2 2 1 1 1 1 1 1 1 2 3 3 3 2 3 6 7 8 8 8 11 12 12 11 11 10 10 10 10 10 10 10 10 11
3 3 1 1 2 2 2 1 2 2 2 2 1 0 1 0 1 1 1 1 2 2 2 2 2 4 6 6 7 9 11 12 11 11 11 10 10 10 10 11 11 11 11
3 2 2 1 1 1 2 2 2 2 2 3 3 2 1 1 2 1 1 1 1 1 2 2 1 3 5 6 6 7 11 11 11 10 10 9 9 9 10 10 11 11 11
2 2 2 1 1 1 1 1 1 2 2 3 4 3 2 2 2 1 2 2 1 1 2 1 2 2 4 5 5 7 10 11 11 10 9 9 9 9 10 10 11 11 11
3 3 2 1 0 0 1 0 0 1 2 2 3 3 3 3 2 2 1 2 2 1 0 1 1 2 2 4 5 6 9 11 11 10 9 8 8 8 8 9 9 10 11
2 3 3 2 1 0 0 0 0 1 1 2 3 3 3 3 3 2 1 2 2 2 1 1 1 1 1 2 5 6 6 9 10 9 9 8 8 7 7 8 8 8 9
2 3 2 2 2 1 0 0 0 1 1 2 3 2 3 3 3 3 2 1 1 2 2 1 1 1 1 2 4 4 3 7 9 10 10 10 9 8 8 7 7 7 7
1 3 2 2 2 2 1 1 1 1 1 2 2 2 3 3 3 3 2 2 1 2 2 2 2 1 1 1 3 2 3 7 10 11 11 11 10 10 9 8 8 7 8
2 2 2 2 2 2 1 1 2 1 2 2 3 2 2 3 3 3 3 2 2 1 2 2 2 1 1 2 1 3 4 5 7 11 12 12 12 12 11 10 9 9 9
2 2 2 2 2 2 1 2 3 2 2 3 3 3 3 2 2 3 3 3 3 2 2 3 2 2 3 3 2 2 3 4 4 8 12 13 12 12 12 12 11 10 9
2 2 2 2 2 2 2 2 2 3 3 3 3 3 3 2 2 2 3 3 3 3 2 3 3 2 2 2 2 3 3 2 5 5 8 10 12 12 12 12 12 11 11
3 2 2 2 2 1 1 1 3 4 3 3 3 3 3 3 2 3 3 2 3 3 3 2 3 2 2 1 1 2 3 2 3 4 3 5 9 11 11 12 12 12 11
3 2 2 3 3 2 1 1 3 4 3 3 3 3 3 3 3 3 3 2 2 2 2 3 3 2 2 2 2 2 3 3 3 3 2 3 3 4 7 10 11 12 11
2 2 3 2 1 1 1 2 2 3 3 3 3 3 2 1 1 2 2 3 3 3 3 3 3 3 3 3 2 3 3 3 3 2 3 4 3 3 4 5 9 11 11
3 2 2 2 2 2 1 1 3 3 2 2 2 3 4 3 1 1 2 4 4 5 5 4 4 4 4 3 3 4 4 4 5 4 3 4 3 3 3 4 9 10 10
3 3 3 2 2 2 2 1 3 3 3 2 2 2 2 2 2 2 3 3 3 3 4 4 4 5 5 3 4 5 5 5 5 4 3 3 3 3 3 3 7 10 11
3 3 2 2 2 2 3 2 3 3 3 3 2 2 1 1 2 2 3 3 4 3 4 5 6 6 7 8 6 4 4 4 5 4 2 2 3 3 3 3 5 9 11
3 3 2 2 2 2 3 2 2 3 3 3 2 1 0 0 2 2 3 3 4 4 5 6 5 6 6 7 7 5 4 4 4 4 3 2 3 3 3 2 2 4 6
Wind_Direction
41 55 34 30 10 93 129 168 183 182 199 223 241 169 157 138 116 153 155 168 173 178 181 186 191 198 199 201 206 206 207 209 208 208 207 207 208 208 208 209 212 213 214
48 66 60 14 3 32 34 88 142 151 188 162 188 182 136 149 164 163 160 172 176 180 183 191 199 204 204 205 208 206 206 207 209 212 212 213 215 212 212 215 214 215 215
61 50 66 26 13 26 38 51 60 80 135 139 197 205 169 162 197 174 169 167 175 183 188 195 204 207 205 204 205 205 206 206 208 211 214 218 220 217 216 218 219 220 219
71 39 58 42 16 16 26 53 60 44 46 193 223 201 161 165 185 185 165 171 178 184 187 192 194 201 201 203 207 206 208 209 210 213 216 217 219 219 220 221 223 223 223
54 43 58 30 355 39 31 20 51 11 330 274 218 185 181 168 184 190 168 172 175 177 172 180 189 193 198 202 203 205 207 210 213 216 220 220 219 218 220 221 222 220 222
78 38 72 34 10 46 43 37 14 338 317 293 287 203 199 188 190 180 178 171 171 174 171 172 180 191 195 198 198 199 203 206 210 214 217 219 220 222 223 223 223 221 220
90 78 30 37 35 61 48 30 8 312 293 301 298 260 204 198 178 167 173 172 169 169 172 171 178 181 187 197 199 196 202 205 208 210 213 217 222 224 225 225 224 223 222
93 97 73 354 48 89 65 18 18 332 324 8 302 302 294 267 274 191 176 177 179 185 192 188 184 182 183 182 194 200 205 209 214 216 218 221 224 226 226 227 226 227 227
121 62 58 26 16 56 79 353 16 349 324 317 30 18 6 312 305 205 200 171 172 183 201 189 188 186 187 181 185 198 204 208 213 218 222 224 226 229 229 228 228 230 230
124 115 87 65 29 35 56 16 47 338 323 321 308 203 173 136 246 299 269 181 174 177 195 207 183 174 177 173 176 182 196 204 212 218 223 227 229 231 232 229 228 231 231
125 113 108 83 83 60 45 25 25 358 352 341 338 335 318 269 244 243 278 274 220 187 191 194 193 171 175 178 176 186 190 198 206 215 224 229 232 234 234 231 232 233 230
142 125 115 86 84 78 54 30 356 10 0 355 342 334 333 328 314 296 279 277 265 230 200 182 180 170 179 178 182 176 186 195 203 214 225 232 235 236 235 235 235 236 235
150 148 146 137 147 156 135 76 310 350 348 333 325 323 327 329 335 330 312 307 310 284 217 206 189 162 178 153 161 180 185 191 198 207 218 228 232 237 239 237 238 239 238
148 151 158 158 162 198 138 329 308 301 325 311 319 327 315 313 319 311 305 301 300 300 268 235 147 138 122 130 162 184 186 190 195 203 211 218 224 228 235 237 237 238 238
160 148 160 167 171 174 262 179 297 306 330 319 316 321 308 306 306 311 305 290 283 294 297 275 292 110 139 148 178 192 189 200 205 208 212 216 218 221 226 229 230 233 233
146 143 164 182 185 190 202 248 255 285 293 287 290 317 314 315 317 314 314 308 294 267 281 316 330 331 13 293 211 220 239 223 215 215 217 216 218 220 223 225 227 233 234
168 167 175 193 203 210 221 250 261 270 282 293 291 283 276 285 305 311 306 306 302 283 271 286 299 310 306 280 246 248 253 229 221 223 218 218 219 219 221 223 227 231 234
193 190 194 211 220 211 232 251 271 280 277 277 280 280 276 269 282 296 300 292 290 282 253 270 281 280 265 255 242 245 258 259 246 232 220 221 220 220 220 223 225 229 233
194 216 207 217 230 223 244 262 271 280 283 282 278 271 266 267 270 280 282 288 287 294 264 258 268 263 265 272 261 260 268 265 268 250 223 222 223 224 223 225 226 227 230
180 201 224 236 238 219 259 292 287 278 282 289 290 289 264 244 251 270 272 285 298 300 289 276 275 272 270 292 276 271 275 271 277 276 254 235 226 228 227 227 228 226 227
196 192 219 238 250 226 255 297 286 273 274 282 290 293 272 244 245 254 270 284 292 290 291 283 280 292 293 319 309 295 290 285 279 266 263 252 224 223 223 229 228 229 225
208 211 218 223 246 259 40 350 327 303 294 297 305 303 289 277 300 238 259 284 283 275 283 291 290 291 294 303 306 301 301 303 294 281 286 273 236 231 227 217 220 217 219
204 209 220 202 170 160 218 316 326 297 287 286 290 292 292 295 314 306 278 273 276 274 268 269 280 284 289 299 302 296 292 287 281 278 284 274 266 260 235 235 203 204 210
213 214 215 197 182 200 201 246 302 272 270 257 261 263 260 299 311 314 287 281 272 275 264 261 268 271 277 278 268 274 281 288 281 273 271 271 276 273 273 213 201 202 207
219 220 215 213 204 201 213 233 290 265 270 276 273 280 242 239 307 314 290 286 288 283 277 270 266 263 258 260 261 271 274 280 290 291 291 279 284 284 271 252 211 208 211
228 231 223 216 212 208 207 218 268 272 275 279 277 257 324 205 271 280 282 285 282 286 291 285 269 259 253 250 248 238 253 269 282 287 289 290 289 298 283 262 217 207 221
Height
1526 1527 1527 1527 1527 1527 1527 1528 1528 1529 1529 1530 1531 1531 1532 1533 1534 1535 1536 1536 1537 1538 1539 1540 1541 1542 1543 1544 1546 1547 1548 1550 1551 1552 1554 1555 1556 1557 1558 1559 1560 1562 1563
1527 1527 1527 1526 1527 1527 1527 1528 1528 1529 1529 1529 1530 1530 1531 1532 1533 1534 1534 1535 1536 1537 1537 1538 1539 1540 1541 1543 1544 1545 1547 1548 1549 1550 1552 1553 1554 1555 1556 1557 1558 1560 1561
1527 1527 1527 1527 1527 1527 1528 1528 1528 1528 1529 1529 1529 1529 1530 1531 1532 1533 1533 1534 1534 1535 1536 1537 1538 1538 1539 1541 1542 1543 1544 1545 1547 1548 1549 1551 1552 1553 1554 1555 1556 1558 1559
1527 1527 1527 1528 1528 1528 1528 1528 1528 1528 1528 1528 1528 1528 1529 1530 1531 1531 1532 1532 1533 1534 1534 1535 1536 1537 1538 1539 1540 1541 1542 1543 1545 1546 1547 1548 1549 1550 1552 1553 1554 1555 1556
1527 1528 1528 1528 1528 1528 1528 1528 1528 1528 1528 1528 1527 1528 1528 1529 1529 1530 1531 1531 1532 1532 1533 1534 1534 1535 1536 1537 1538 1539 1540 1541 1542 1544 1545 1546 1547 1548 1549 1550 1551 1552 1553
1527 1528 1528 1528 1528 1528 1528 1528 1528 1528 1528 1528 1528 1528 1528 1528 1529 1529 1530 1531 1531 1531 1532 1532 1533 1534 1535 1535 1536 1537 1538 1539 1540 1541 1542 1543 1544 1545 1546 1547 1548 1549 1550
1527 1527 1527 1528 1528 1528 1528 1528 1528 1528 1528 1528 1528 1527 1528 1528 1528 1529 1529 1530 1530 1531 1531 1531 1532 1532 1533 1534 1535 1535 1536 1537 1538 1539 1540 1540 1541 1542 1543 1544 1545 1546 1547
1527 1527 1527 1527 1528 1528 1528 1528 1527 1528 1528 1528 1528 1527 1528 1529 1528 1528 1528 1529 1529 1530 1530 1530 1531 1531 1531 1532 1533 1534 1534 1535 1536 1537 1538 1538 1539 1539 1540 1541 1542 1543 1544
1526 1527 1527 1527 1528 1528 1528 1527 1527 1527 1527 1528 1528 1528 1528 1527 1527 1528 1528 1528 1528 1529 1529 1529 1530 1530 1530 1530 1531 1532 1532 1533 1534 1535 1535 1536 1536 1537 1537 1538 1538 1539 1540
1526 1526 1526 1527 1527 1527 1527 1527 1527 1527 1527 1527 1528 1527 1528 1527 1527 1527 1527 1527 1527 1527 1528 1528 1528 1529 1529 1529 1529 1530 1530 1531 1531 1532 1533 1533 1533 1534 1534 1535 1535 1536 1537
1525 1526 1526 1526 1526 1526 1526 1527 1527 1526 1526 1526 1526 1527 1526 1526 1526 1526 1526 1526 1527 1526 1526 1527 1527 1527 1527 1527 1527 1528 1528 1529 1529 1529 1530 1530 1531 1531 1531 1532 1532 1533 1534
1524 1525 1525 1525 1525 1525 1526 1526 1526 1526 1525 1525 1525 1525 1526 1525 1525 1525 1525 1524 1525 1525 1525 1525 1525 1526 1526 1525 1525 1526 1526 1526 1526 1527 1527 1527 1527 1528 1528 1529 1529 1530 1530
1523 1523 1524 1524 1524 1524 1525 1525 1525 1525 1524 1524 1524 1524 1524 1524 1524 1524 1524 1523 1523 1523 1523 1523 1524 1524 1524 1524 1523 1524 1523 1523 1523 1523 1524 1524 1524 1525 1525 1525 1526 1526 1527
1522 1522 1523 1523 1523 1523 1523 1523 1523 1523 1523 1523 1523 1522 1522 1522 1522 1522 1522 1522 1521 1521 1521 1521 1522 1522 1522 1521 1521 1521 1520 1520 1520 1520 1520 1521 1521 1521 1521 1522 1522 1523 1523
1521 1521 1521 1521 1521 1521 1522 1522 1521 1521 1521 1521 1520 1520 1520 1520 1520 1520 1520 1520 1521 1519 1519 1520 1520 1519 1519 1519 1518 1517 1517 1517 1517 1517 1517 1517 1517 1517 1518 1518 1518 1519 1519
1518 1519 1519 1520 1520 1520 1520 1520 1520 1519 1519 1519 1518 1518 1517 1517 1517 1517 1517 1517 1518 1518 1517 1517 1517 1517 1516 1516 1515 1515 1514 1513 1513 1513 1513 1513 1513 1514 1514 1514 1514 1515 1515
1516 1517 1517 1517 1518 1518 1518 1518 1517 1517 1517 1516 1516 1515 1515 1514 1514 1514 1515 1515 1515 1515 1514 1514 1514 1514 1514 1513 1512 1511 1511 1510 1510 1510 1510 1510 1510 1510 1510 1510 1510 1510 1511
1514 1515 1515 1515 1516 1515 1515 1515 1515 1515 1514 1513 1513 1512 1512 1512 1511 1511 1511 1512 1512 1512 1512 1511 1511 1511 1510 1510 1509 1509 1508 1508 1507 1507 1506 1506 1506 1506 1506 1506 1506 1506 1507
1511 1512 1513 1513 1513 1513 1513 1513 1512 1512 1511 1510 1510 1509 1509 1509 1508 1508 1508 1508 1509 1509 1508 1508 1507 1508 1507 1507 1506 1505 1505 1504 1504 1504 1503 1503 1502 1502 1502 1502 1502 1502 1502
1509 1510 1510 1511 1511 1511 1510 1510 1510 1509 1509 1508 1507 1506 1505 1505 1505 1505 1505 1505 1505 1505 1505 1505 1504 1504 1504 1503 1503 1502 1501 1501 1500 1500 1500 1499 1498 1498 1498 1498 1498 1498 1498
1507 1507 1508 1508 1508 1508 1507 1507 1507 1507 1506 1505 1504 1503 1503 1502 1502 1502 1502 1502 1502 1502 1502 1502 1502 1501 1501 1500 1499 1498 1498 1497 1497 1497 1496 1495 1494 1494 1493 1493 1493 1493 1493
1505 1505 1505 1505 1505 1505 1505 1505 1504 1504 1503 1502 1501 1500 1500 1499 1499 1498 1498 1498 1499 1499 1499 1499 1499 1498 1497 1497 1496 1496 1495 1494 1493 1494 1493 1491 1491 1490 1489 1489 1489 1489 1489
1502 1502 1502 1502 1502 1502 1502 1502 1501 1501 1500 1499 1498 1497 1497 1497 1496 1495 1495 1495 1495 1496 1496 1496 1496 1495 1494 1494 1494 1493 1492 1491 1490 1489 1489 1487 1487 1486 1486 1485 1485 1485 1485
1500 1500 1500 1500 1500 1500 1500 1499 1499 1498 1497 1496 1495 1495 1494 1493 1493 1492 1492 1492 1492 1492 1492 1493 1492 1492 1491 1491 1491 1490 1489 1488 1487 1486 1486 1484 1483 1482 1482 1482 1481 1481 1481
1497 1497 1497 1497 1497 1497 1497 1497 1496 1496 1495 1493 1493 1492 1491 1491 1490 1490 1490 1489 1489 1489 1489 1489 1489 1488 1488 1487 1487 1486 1485 1484 1482 1482 1482 1481 1480 1479 1478 1477 1477 1477 1477
1494 1495 1495 1495 1495 1494 1494 1494 1494 1493 1492 1491 1490 1489 1488 1488 1488 1487 1487 1486 1485 1485 1485 1485 1485 1485 1484 1484 1483 1483 1482 1481 1480 1479 1479 1478 1477 1476 1474 1473 1473 1473 1473